San Antonio, TX

12:56 AM CDT on October 01, 2016 (GMT -0500)
San Antonio International

Weather History for KSAT - November, 2012

Change the Weather History Date:

Thursday, November 8, 2012

  Actual Average Record
Temperature  
Mean Temperature 69 °F 64 °F  
Max Temperature 83 °F 75 °F 90 °F (1989)
Min Temperature 54 °F 53 °F 29 °F (1959)
Degree Days  
Heating Degree Days 0 4  
Month to date heating degree days 0 27  
Since 1 July heating degree days 55 60  
Cooling Degree Days 4 3  
Month to date cooling degree days 42 28  
Year to date cooling degree days 3523 3083  
Growing Degree Days 18 (Base 50)    
Moisture  
Dew Point 58 °F    
Average Humidity 67    
Maximum Humidity 100    
Minimum Humidity 34    
Precipitation  
Precipitation 0.00 in 0.08 in 1.79 in (1990)
Month to date precipitation 0.02 0.72  
Year to date precipitation 38.78 28.80  
Snow  
Snow 0.00 in - - ()
Month to date snowfall 0.0  
Since 1 July snowfall 0.0  
Since 1 September snowfall 0.0  
Snow Depth 0.00 in    
Sea Level Pressure  
Sea Level Pressure 30.03 in    
Wind  
Wind Speed 9 mph (SSE)    
Max Wind Speed 20 mph    
Max Gust Speed 25 mph    
Visibility 10 miles    
Events Fog    
T = Trace of Precipitation, MM = Missing Value Source: NWS Daily Summary

Daily Weather History Graph

Daily Weather History Graph

Search for Another Location

Airport or City:

Trip Planner

Search our weather history database for the weather conditions in past years. The results will help you decide how hot, cold, wet, or windy it might be!

Date:

Astronomy

Nov. 08, 2012 Rise Set
Actual Time 6:52 AM CST 5:42 PM CST
Civil Twilight 6:27 AM CST 6:06 PM CST
Nautical Twilight 5:59 AM CST 6:35 PM CST
Astronomical Twilight 5:31 AM CST 7:03 PM CST
Moon 1:15 AM CST (11/8) 2:00 PM CST (11/8)
Length of Visible Light 11h 38m
Length of Day
10h 49m
Waning Crescent, 32% of the Moon is Illuminated
Nov 8
Waning Crescent
Nov 13
New
Nov 20
First Quarter
Nov 28
Full
Dec 6
Last Quarter

Hourly Weather History & Observations

Time (CST) Temp. Heat Index Dew Point Humidity Pressure Visibility Wind Dir Wind Speed Gust Speed Precip Events Conditions
12:53 AM 63.0 °F - 60.1 °F 90% 30.06 in 10.0 mi SSE 5.8 mph - N/A   Clear
1:53 AM 62.6 °F - 60.8 °F 94% 30.09 in 10.0 mi SSE 4.6 mph - N/A   Clear
2:53 AM 59.0 °F - 57.9 °F 96% 30.05 in 10.0 mi Calm Calm - N/A   Clear
3:53 AM 57.0 °F - 55.9 °F 96% 30.04 in 10.0 mi Calm Calm - N/A   Clear
4:53 AM 55.9 °F - 55.0 °F 97% 30.05 in 10.0 mi Calm Calm - N/A   Clear
5:53 AM 55.9 °F - 54.0 °F 93% 30.06 in 10.0 mi Calm Calm - N/A   Clear
6:53 AM 55.9 °F - 55.0 °F 97% 30.07 in 10.0 mi Calm Calm - N/A   Clear
7:53 AM 59.0 °F - 57.0 °F 93% 30.09 in 9.0 mi Calm Calm - N/A Fog Patches of Fog
8:53 AM 64.0 °F - 60.1 °F 87% 30.11 in 7.0 mi ESE 3.5 mph - N/A Fog Patches of Fog
9:53 AM 72.0 °F - 61.0 °F 68% 30.11 in 10.0 mi South 11.5 mph - N/A   Scattered Clouds
10:53 AM 75.9 °F - 60.1 °F 58% 30.09 in 10.0 mi South 13.8 mph 18.4 mph N/A   Partly Cloudy
11:53 AM 78.1 °F - 55.9 °F 46% 30.06 in 10.0 mi SSE 15.0 mph 20.7 mph N/A   Scattered Clouds
12:53 PM 80.1 °F 79.9 °F 53.1 °F 39% 30.03 in 10.0 mi South 18.4 mph 23.0 mph N/A   Scattered Clouds
1:53 PM 80.1 °F 79.9 °F 53.1 °F 39% 29.99 in 10.0 mi South 15.0 mph 20.7 mph N/A   Mostly Cloudy
2:53 PM 82.0 °F - 52.0 °F 35% 29.98 in 10.0 mi SSE 16.1 mph 20.7 mph N/A   Scattered Clouds
3:53 PM 82.0 °F 81.3 °F 54.0 °F 38% 29.97 in 10.0 mi SSE 15.0 mph - N/A   Partly Cloudy
4:53 PM 80.1 °F 80.0 °F 54.0 °F 40% 29.97 in 10.0 mi SSE 13.8 mph - N/A   Partly Cloudy
5:53 PM 75.9 °F - 55.9 °F 50% 29.97 in 10.0 mi SSE 11.5 mph - N/A   Clear
6:53 PM 73.0 °F - 60.1 °F 64% 29.99 in 10.0 mi SE 13.8 mph - N/A   Clear
7:53 PM 72.0 °F - 62.1 °F 71% 30.01 in 10.0 mi SE 16.1 mph - N/A   Clear
8:53 PM 70.0 °F - 63.0 °F 78% 30.02 in 10.0 mi SE 13.8 mph - N/A   Clear
9:53 PM 69.1 °F - 64.0 °F 84% 30.02 in 10.0 mi SE 12.7 mph - N/A   Clear
10:53 PM 68.0 °F - 64.0 °F 87% 30.02 in 10.0 mi SSE 10.4 mph - N/A   Clear
11:53 PM 66.9 °F - 64.0 °F 90% 30.01 in 10.0 mi SSE 9.2 mph - N/A   Clear